TimeMDT,TemperatureF,Dew PointF,Humidity,Sea Level PressureIn,VisibilityMPH,Wind Direction,Wind SpeedMPH,Gust SpeedMPH,PrecipitationIn,Events,Conditions,WindDirDegrees,DateUTC
12:15 AM,39.2,33.8,81,30.07,10.0,ENE,4.6,-,N/A,,Partly Cloudy,60,2011-10-26 06:15:00
12:55 AM,37.4,33.8,87,30.06,10.0,Calm,Calm,-,N/A,,Mostly Cloudy,0,2011-10-26 06:55:00
1:15 AM,35.6,33.8,93,30.07,10.0,Calm,Calm,-,N/A,,Overcast,0,2011-10-26 07:15:00
1:55 AM,35.6,33.8,93,30.06,10.0,SSE,5.8,-,N/A,,Mostly Cloudy,160,2011-10-26 07:55:00
2:15 AM,37.4,33.8,87,30.06,10.0,WSW,4.6,-,N/A,,Overcast,250,2011-10-26 08:15:00
2:35 AM,37.4,33.8,87,30.05,10.0,Calm,Calm,-,N/A,,Overcast,0,2011-10-26 08:35:00
2:55 AM,37.4,33.8,87,30.03,10.0,Calm,Calm,-,N/A,,Mostly Cloudy,0,2011-10-26 08:55:00
3:15 AM,37.4,33.8,87,30.02,10.0,NNW,5.8,-,N/A,,Mostly Cloudy,330,2011-10-26 09:15:00
3:35 AM,37.4,33.8,87,30.01,10.0,Calm,Calm,-,N/A,,Overcast,0,2011-10-26 09:35:00
3:55 AM,35.6,33.8,93,30.00,10.0,NW,4.6,-,N/A,,Mostly Cloudy,310,2011-10-26 09:55:00
4:36 AM,35.6,32.0,87,29.99,10.0,Calm,Calm,-,N/A,,Partly Cloudy,0,2011-10-26 10:36:00
4:55 AM,35.6,32.0,87,30.00,10.0,Calm,Calm,-,N/A,,Scattered Clouds,0,2011-10-26 10:55:00
5:15 AM,35.6,33.8,93,29.99,10.0,Calm,Calm,-,N/A,,Overcast,0,2011-10-26 11:15:00
5:36 AM,35.6,33.8,93,29.99,10.0,Calm,Calm,-,N/A,,Mostly Cloudy,0,2011-10-26 11:36:00
5:55 AM,35.6,32.0,87,29.98,10.0,Calm,Calm,-,N/A,,Mostly Cloudy,0,2011-10-26 11:55:00
6:15 AM,35.6,32.0,87,29.97,10.0,Calm,Calm,-,N/A,,Mostly Cloudy,0,2011-10-26 12:15:00
6:35 AM,33.8,30.2,87,29.97,5.0,Calm,Calm,-,N/A,,Mostly Cloudy,0,2011-10-26 12:35:00
6:55 AM,33.8,30.2,87,29.98,0.5,Calm,Calm,-,N/A,,Overcast,0,2011-10-26 12:55:00
7:15 AM,35.6,32.0,87,29.99,10.0,WSW,5.8,-,N/A,,Overcast,250,2011-10-26 13:15:00
7:35 AM,35.6,32.0,87,30.00,7.0,SW,3.5,-,N/A,,Overcast,220,2011-10-26 13:35:00
7:55 AM,35.6,33.8,93,30.00,10.0,SE,5.8,-,N/A,,Overcast,140,2011-10-26 13:55:00
8:35 AM,35.6,30.2,81,30.00,10.0,SSW,6.9,-,0.02,,Mostly Cloudy,200,2011-10-26 14:35:00
9:15 AM,35.6,30.2,81,30.01,9.0,SW,5.8,-,N/A,,Overcast,230,2011-10-26 15:15:00
1:35 PM,37.4,30.2,75,29.99,10.0,SSE,6.9,-,N/A,,Overcast,150,2011-10-26 19:35:00
1:56 PM,37.4,30.2,75,29.98,10.0,SE,8.1,-,N/A,,Overcast,130,2011-10-26 19:56:00
2:15 PM,35.6,30.2,81,29.98,10.0,East,10.4,-,N/A,,Overcast,100,2011-10-26 20:15:00
2:55 PM,35.6,28.4,75,29.97,10.0,East,11.5,-,N/A,,Overcast,80,2011-10-26 20:55:00
3:15 PM,35.6,30.2,81,29.98,10.0,East,9.2,-,N/A,,Overcast,80,2011-10-26 21:15:00
3:35 PM,37.4,30.2,75,29.98,10.0,East,5.8,-,N/A,,Overcast,90,2011-10-26 21:35:00
3:55 PM,35.6,30.2,81,29.98,10.0,ENE,8.1,-,N/A,,Overcast,70,2011-10-26 21:55:00
4:15 PM,35.6,30.2,81,29.99,10.0,ENE,11.5,-,N/A,,Overcast,60,2011-10-26 22:15:00
4:35 PM,35.6,30.2,81,30.00,10.0,East,9.2,-,N/A,,Overcast,100,2011-10-26 22:35:00
5:15 PM,35.6,28.4,75,29.99,10.0,ENE,11.5,-,N/A,,Overcast,60,2011-10-26 23:15:00
6:15 PM,35.6,28.4,75,30.01,5.0,North,5.8,-,N/A,,Overcast,10,2011-10-27 00:15:00
6:36 PM,35.6,28.4,75,30.02,6.0,ENE,5.8,-,N/A,,Overcast,60,2011-10-27 00:36:00
6:55 PM,33.8,28.4,81,30.04,10.0,ENE,6.9,-,N/A,,Overcast,70,2011-10-27 00:55:00
7:15 PM,35.6,28.4,75,30.04,10.0,ENE,5.8,-,N/A,,Overcast,70,2011-10-27 01:15:00
7:35 PM,35.6,28.4,75,30.05,10.0,Calm,Calm,-,N/A,,Overcast,0,2011-10-27 01:35:00
7:55 PM,33.8,28.4,81,30.06,10.0,Calm,Calm,-,N/A,,Overcast,0,2011-10-27 01:55:00
8:15 PM,33.8,28.4,81,30.07,10.0,Calm,Calm,-,N/A,,Overcast,0,2011-10-27 02:15:00
8:35 PM,35.6,28.4,75,30.07,10.0,SW,5.8,-,N/A,,Overcast,220,2011-10-27 02:35:00
8:55 PM,33.8,26.6,75,30.08,10.0,WSW,4.6,-,N/A,,Overcast,250,2011-10-27 02:55:00
9:15 PM,33.8,26.6,75,30.09,10.0,SW,4.6,-,N/A,,Overcast,230,2011-10-27 03:15:00
9:16 PM,33.8,26.6,75,30.09,10.0,SW,4.6,-,N/A,,Overcast,230,2011-10-27 03:16:00
9:35 PM,33.8,26.6,75,30.10,10.0,SW,3.5,-,N/A,,Overcast,220,2011-10-27 03:35:00
10:15 PM,33.8,26.6,75,30.10,10.0,Calm,Calm,-,N/A,,Overcast,0,2011-10-27 04:15:00
10:35 PM,33.8,26.6,75,30.10,10.0,SW,4.6,-,N/A,,Overcast,220,2011-10-27 04:35:00
10:55 PM,33.8,26.6,75,30.10,10.0,SSW,3.5,-,N/A,,Overcast,200,2011-10-27 04:55:00
11:15 PM,33.8,26.6,75,30.10,10.0,SSW,3.5,-,N/A,,Overcast,210,2011-10-27 05:15:00
11:35 PM,33.8,26.6,75,30.11,10.0,SW,6.9,-,N/A,,Overcast,230,2011-10-27 05:35:00
11:55 PM,33.8,26.6,75,30.11,10.0,SW,5.8,-,N/A,,Overcast,230,2011-10-27 05:55:00